Other Surface Observations
Issued by NWS Charleston, SC

Home | Current Version | Previous Version | Text Only | Print | Product List | Glossary On
Versions: 1 2 3 4 5 6 7 8 9 10 11 12 13 14 15 16 17 18 19 20 21 22 23 24 25 26 27 28 29 30 31 32 33 34 35 36 37 38 39 40 41 42 43 44 45 46 47 48 49 50
000
SXUS52 KCHS 241212
OSOCHS

Marine Observations
National Weather Service Charleston SC
700 AM EST WED JAN 24 2018

...Downtown Charleston and Harbor...

CITY           SKY/WX    TMP DP  RH WIND       PRES   REMARKS
Waterfront Prk   N/A     46  34  62 NW5       30.00R

...Lake Moultrie...

CITY           SKY/WX    TMP DP  RH WIND       PRES   REMARKS
Pinopolis        N/A     45  37  76 W5        30.09R

...Lake and Supplemental Coastal Observations...

STATION/POSITION TIME  TEMP    WIND        PRES    WAVE   SWELL
                       AIR SEA DIR/SP/G            HT/PER HT/PER/DIR
                 (UTC) (F)     (DEG/KT/KT) (MB)    (FT/S) (FT/S/D)
Fort Pulaski     1142   45 48  300/  7/  8 1022.0R
Sapelo Island    1100   45     330/  6     1022.0
Winyah Bay       1045   44     300/  5     1020.0
Lake Murray      1120   40     280/  4/  5 1020.0
ACE Basin NERRS  1045   42     260/  1     1021.0


...C-MAN and Buoy Observations...

STATION/POSITION TIME  TEMP    WIND        PRES    WAVE   SWELL
                       AIR SEA DIR/SP/G            HT/PER HT/PER/DIR
                 (UTC) (F)     (DEG/KT/KT) (MB)    (FT/S) (FT/S/D)
Buoy 41004       1150   55 69  340/ 12/ 16 1020.6R   3/ 4   2/130/ 8
Buoy 41008       1150   49 49  320/ 12/ 16 1021.6R   2/ 8   2/110/ 8
Folly Beach CMAN 1200   42     300/  5/  6 1021.8R
Capers NS Buoy   1108   45 52  300/ 10/ 12 1020.5R
Fripp NS Buoy    1108   44 48  310/  8/ 10 1020.4R
5E St. Marys GA  1200      51                N/A     2/ 7


STATION/POSITION TIME  TEMP    WIND        PRES    WAVE   SWELL
                       AIR SEA DIR/SP/G            HT/PER HT/PER/DIR
                 (UTC) (F)     (DEG/KT/KT) (MB)    (FT/S) (FT/S/D)
Frying Pan Buoy  1150   53 59  340/ 14/ 17 1019.8R   4/ 7   3/180/ 7
Buoy 41025       1150   55 68  320/ 19/ 23 1018.1R   5/ 8   3/180/ 8
Cape Lookout NC  1200          320/  9/ 11 1019.5R
Buoy 41002       1150   68 70  310/ 16/ 17 1017.7R   8/ 8   5/270/ 8
Buoy 41010       NOT AVBL
St Augustine FL  1200   49 53  330/ 10/ 12 1022.3R

$$




USA.gov is the U.S. government's official web portal to all federal, state and local government web resources and services.